www.pogodaiklimat.ru

ПОГОДА в Портервилле, CA

  • Прогноз погоды в Портервилле
  • Монитор погоды в Портервилле
  • Климат в Портервилле

АРХИВ ПОГОДЫ в Портервилле

Время (UTC), дата Ветер
(напр.,м/с)
 
Видим.   Явления Облачность Т
(С)
Тd
(С)
f
(%)
Тe
(С)
Тes
(С)
Комфортность

P
(гПа)

Po
(гПа)
Тmin
(С)
Tmax
(С)
R
(мм)
SD
(см)
13:56 20.05 СЗ  16 км    10/10 150 м  +12.2  +10.0  86  +11  +11    1015.8  998.3         
14:11 20.05 СЗ  16 км    10/10 210 м  +12.0  +10.0  88  +11  +11      998.3         
14:33 20.05 нст  16 км    2/2 270 м  +13.0  +10.0  82  +13  +16      998.6         
14:56 20.05   16 км    5/5 360 м  +13.9  +10.0  77  +14  +16    1016.4  999.0         
15:09 20.05 СЗ  16 км    8/8 360 м  +13.0  +9.0  77  +13  +14      999.0         
15:23 20.05 СЗ  16 км    5/5 360 м  +13.0  +9.0  77  +13  +17      999.0         
15:56 20.05 нст  16 км    8/8 570 м  +13.9  +8.9  72  +13  +14    1016.5  999.0         
16:56 20.05 СЗ  16 км    8/8 690 м  +15.6  +8.9  64  +15  +18    1016.8  999.3  +8.3  +16.1     
17:56 20.05 СЗ  16 км    10/10 780 м  +15.0  +8.9  67  +14  +14    1017.3  999.6         
18:56 20.05 нст  16 км    2/2 1140 м  +17.2  +7.8  54  +18  +35  опасность
простуды 
1017.0  999.6         
19:56 20.05 СЗ  16 км    5/5 1410 м  +18.3  +7.8  50  +18  +25    1016.4  999.0         
20:56 20.05 З  16 км    8/5 1350 м
[средняя] 
+18.3  +7.2  48  +18  +21    1016.7  999.3         
21:56 20.05 СЗ  16 км    8/8 1470 м  +19.4  +8.3  49  +20  +22    1016.0  998.6         
22:56 20.05 СЗ  16 км    2/2 1650 м  +20.0  +8.3  47  +21  +24  комфорт  1015.7  998.3  +14.4  +20.0     
23:56 20.05 З  16 км    2/2 1470 м  +20.0  +8.3  47  +21  +24  комфорт  1015.5  998.0         
00:56 21.05 З  16 км    ясно  +19.4  +7.8  47  +20  +22    1015.3  998.0         
01:56 21.05 З  16 км    ясно  +16.1  +8.9  62  +16  +16    1015.3  998.0         
02:56 21.05 СЗ  16 км    ясно  +15.6  +10.0  69  +16  +16    1015.7  998.3         
03:56 21.05 В  16 км    ясно  +13.3  +10.6  84  +12  +12    1016.1  998.6         
04:56 21.05   16 км    ясно  +12.2  +9.4  83  +12  +12    1016.4  999.0  +11.7  +20.0     
05:56 21.05 ЮВ  16 км    ясно  +10.6  +8.9  89  +8  +8    1016.1  998.6         
06:56 21.05 ЮВ  16 км    ясно  +9.4  +8.9  97  +7  +7    1015.7  998.0         
07:56 21.05   16 км    ясно  +10.0  +8.3  89  +9  +9    1015.2  997.6         
08:56 21.05   16 км    ясно  +9.4  +8.3  93  +9  +9    1015.2  997.6         
09:56 21.05 В  16 км    2/2 1950 м  +8.9  +7.2  89  +7  +7    1014.7  997.3         
10:56 21.05 ЮЗ  16 км    8/0 2250 м
[средняя] 
+8.9  +7.8  93  +7  +7    1015.0  997.6  +8.3  +12.2     
11:56 21.05 З  11 км    8/5 1500 м
[средняя] 
+10.0  +8.9  93  +7  +7    1015.0  997.6         
12:56 21.05     16 км    8/8 1500 м
[средняя] 
+11.1  +9.4  89  +10  +10    1015.0  997.6         
13:56 21.05 Ю  16 км    5/2 1800 м
[средняя] 
+11.7  +10.0  89  +10  +11    1015.3  997.6         
14:56 21.05 З  16 км    10/10 330 м  +13.9  +10.0  77  +14  +14    1015.4  998.0         
15:56 21.05 СЗ  7
{9} 
16 км    8/8 750 м  +16.7  +8.9  60  +15  +16    1014.8  997.3         
16:56 21.05 СЗ  16 км    10/10 900 м  +16.1  +8.9  62  +15  +15    1014.9  997.3  +10.0  +17.2     
17:56 21.05 З  16 км    10/8 780 м
[средняя] 
+15.6  +9.4  67  +14  +14    1014.7  997.3         
18:56 21.05 СЗ  16 км    10/8 990 м
[средняя] 
+17.8  +7.8  52  +17  +17    1013.8  996.3         
19:56 21.05 СЗ  16 км    10/2 1170 м
[средняя] 
+18.3  +7.8  50  +18  +21    1013.1  995.6         
20:56 21.05 СЗ  5
{8} 
16 км    8/8 1380 м
[средняя] 
+18.9  +8.3  50  +19  +20    1012.5  995.0         
21:56 21.05 СЗ  7
{9} 
16 км    5/2 1500 м
[средняя] 
+20.6  +6.7  40  +21  +23  комфорт  1011.3  994.0         
22:56 21.05 СЗ  10
{16} 
16 км    8/5 1800 м
[средняя] 
+18.3  +7.2  48  +17  +17    1011.0  993.6  +14.4  +21.1     
23:56 21.05 С  7
{11} 
16 км    8/2 1410 м
[средняя] 
+18.9  +7.8  48  +19  +19    1010.8  993.3         
00:56 22.05 С  16 км    8/0 2550 м
[средняя] 
+16.7  +6.7  52  +15  +16    1010.7  993.3         
01:56 22.05 С  16 км  слабый дождь  10/0 2100 м
[средняя] 
+14.4  +8.3  67  +12  +12    1011.6  994.0         
02:56 22.05 С  16 км    10/0 2250 м
[средняя] 
+13.3  +8.3  72  +13  +13    1011.4  994.0         
03:56 22.05   16 км    10/0 2850 м
[средняя] 
+12.2  +8.9  80  +12  +12    1011.8  994.3         
04:56 22.05 СЗ  16 км    10/0 2400 м
[средняя] 
+12.2  +9.4  83  +10  +10    1012.2  994.6  +11.7  +18.9     
05:56 22.05 С  16 км    10/5 1500 м
[средняя] 
+12.2  +9.4  83  +10  +10    1012.1  994.6         
06:56 22.05 С  16 км  слабый дождь  10/10 1110 м  +11.7  +10.0  89  +10  +10    1011.8  994.3         
07:56 22.05 С  16 км    10/10 1170 м  +12.2  +10.0  86  +10  +10    1011.3  994.0         
08:56 22.05 С  16 км    10/10 1950 м  +11.7  +9.4  86  +10  +10    1010.7  993.3         

 

Местоположение метеостанции Porterville Municipal Airport: широта 36.0333 долгота -119.0667 высота над уровнем моря 135 м.

В архиве по умолчанию представлена погода в Портервилле за последние 1-2 суток. Обновление информации о фактической погоде в базе происходит ежечасно! Архивные данные за месяц целиком и за предыдущие месяцы Вы можете получить, выбрав интересующий диапазон дат из раскрывающегося списка и нажав кнопку "Ввод!".

Внимание! Архив погоды МЕТАР в базе сайта хранится не более 60 дней. Нет смысла пытаться выбрать более раннюю дату.

Внимание! Время в таблицах - всемирное. Для получения местного времени необходимо прибавить поправку, которая в Портервилле равна -8 ч.

Ветер - указаны скорость ветра в м/с и направление, откуда дует ветер: С - северный, СВ - северо-восточный, В - восточный, ЮВ - юго-восточный, Ю - южный, ЮЗ - юго-западный, З - западный, СЗ - северо-западный.
Видимость - горизонтальная дальность видимости в метрах или километрах. При видимости от 1 до 10 км при отсутствии осадков обычно наблюдается дымка, при ухудшении видимости до 1 км и менее - туман. В сухую погоду видимость может ухудшаться дымом, пылью или мглою.
Атмосферные явления - указаны явления, наблюдавшиеся в указанный момент времени.
Облачность - указаны через наклонную черту верхняя и нижняя облачность в баллах и высота нижней границы облаков в метрах. Внимание: облачность, как и прочие метеорологические величины в США измеряются автоматическими метеостанциями. Указанные значения в баллах носят условный характер и показывают процент времени, в течение которого, в среднем, лазерный луч высотомера отражался от облаков обратно.
T - Температура воздуха - температура, измеренная на высоте 2 м над землей.
Td - Температура точки росы - температура, при понижении до которой содержащийся в воздухе водяной пар достигнет насыщения.
f - Относительная влажность воздуха - влажноcть воздуха, измеренная на высоте 2 м над землей.
Te - Эффективная температура - температура, которую ощущает одетый по сезону человек в тени. Характеристика душности погоды. При расчете учитывается влияние влажности воздуха и скорости ветра на теплоощущения человека.
Tes - Эффективная температура на солнце - температура, которую ощущает человек, с поправкой на солнечный нагрев. Характеристика знойности погоды. Зависит от высоты солнца над горизонтом, облачности и скорости ветра. Ночью, в пасмурную погоду, а также при ветре 12 м/с и более поправка равна нулю.
P - Атмосферное давление - приведенное к уровню моря атмосферное давление.
Po - Атмосферное давление - измеренное на уровне метеостанции атмосферное давление.
Tmin - Минимальная температура - минимум температуры воздуха на высоте 2 м над землей.
Tmax - Максимальная температура - максимум температуры воздуха на высоте 2 м над землей.
R - Количество осадков - Количество выпавших осадков за 3 или 6 часов, мм.
SD - Снежный покров - Высота снежного покрова, см.